Retour au catalogue

STARLINK-36736

ActifCommunicationsVLEO
NORAD 67911·PAYLOAD·🇺🇸 United States

Lancé Feb 22, 2026 depuis Vandenberg Space Force Base

Loading…

Prochains Passages (prochaines 24 heures)

TLE

FraisSource: CelesTrak SupGP

Époque: Sep 15, 2026, 04:15 UTC

1 67911C 26036H   26258.17756944 -.00041639  00000+0 -15084-2 0  2589
2 67911  43.0021 255.1686 0001486 269.6777  10.8706 15.27593532    17

Suivez STARLINK-36736 en temps réel avec AllMySat

Download on the App Store